When you browse on this site, cookies collect data to enhance your experience and personalize the content and advertising you see.
Visit our Privacy Policy to learn more. By continuing to use the site, you agree to this use of cookies and data.

Meteo pe oră la Mosul

Astăzi, 12 August, Miercuri

Timp Temperatura Precipitaţii Vânt Presiune Umiditate
00:00 +31°C° 0 mm 3 m/s 723 mmHg 30%
01:00 +30°C° 0 mm 3 m/s 723 mmHg 32%
02:00 +29°C° 0 mm 2 m/s 722 mmHg 34%
03:00 +28°C° 0 mm 2 m/s 722 mmHg 37%
04:00 +28°C° 0 mm 2 m/s 722 mmHg 36%
05:00 +28°C° 0 mm 2 m/s 723 mmHg 36%
06:00 +28°C° 0 mm 2 m/s 723 mmHg 35%
07:00 +31°C° 0 mm 2 m/s 723 mmHg 31%
08:00 +34°C° 0 mm 2 m/s 723 mmHg 26%
09:00 +37°C° 0 mm 2 m/s 724 mmHg 21%
10:00 +39°C° 0 mm 2 m/s 724 mmHg 18%
11:00 +40°C° 0 mm 1 m/s 724 mmHg 16%
12:00 +39°C° 0 mm 0 m/s 724 mmHg 13%
13:00 +42°C° 0 mm 1 m/s 723 mmHg 13%
14:00 +43°C° 0 mm 1 m/s 723 mmHg 12%
15:00 +43°C° 0 mm 1 m/s 723 mmHg 12%
16:00 +43°C° 0 mm 1 m/s 723 mmHg 12%
17:00 +42°C° 0 mm 2 m/s 723 mmHg 12%
18:00 +42°C° 0 mm 2 m/s 723 mmHg 12%
19:00 +40°C° 0 mm 2 m/s 723 mmHg 14%
20:00 +38°C° 0 mm 2 m/s 723 mmHg 16%
21:00 +35°C° 0 mm 3 m/s 723 mmHg 18%
22:00 +35°C° 0 mm 3 m/s 723 mmHg 19%
23:00 +34°C° 0 mm 3 m/s 723 mmHg 21%

Mâine, 13 August, Joi

Timp Temperatura Precipitaţii Vânt Presiune Umiditate
00:00 +33°C° 0 mm 3 m/s 723 mmHg 22%
01:00 +31°C° 0 mm 3 m/s 722 mmHg 23%
02:00 +30°C° 0 mm 3 m/s 722 mmHg 24%
03:00 +30°C° 0 mm 3 m/s 722 mmHg 24%
04:00 +29°C° 0 mm 2 m/s 722 mmHg 25%
05:00 +29°C° 0 mm 2 m/s 722 mmHg 26%
06:00 +28°C° 0 mm 2 m/s 723 mmHg 26%
07:00 +31°C° 0 mm 2 m/s 723 mmHg 23%
08:00 +34°C° 0 mm 2 m/s 723 mmHg 20%
09:00 +36°C° 0 mm 1 m/s 723 mmHg 17%
10:00 +39°C° 0 mm 2 m/s 723 mmHg 16%
11:00 +41°C° 0 mm 2 m/s 723 mmHg 14%
12:00 +44°C° 0 mm 3 m/s 723 mmHg 13%
13:00 +44°C° 0 mm 3 m/s 722 mmHg 12%
14:00 +45°C° 0 mm 3 m/s 722 mmHg 11%
15:00 +45°C° 0 mm 3 m/s 721 mmHg 11%
16:00 +45°C° 0 mm 3 m/s 721 mmHg 11%
17:00 +44°C° 0 mm 3 m/s 721 mmHg 11%
18:00 +44°C° 0 mm 3 m/s 721 mmHg 12%
19:00 +42°C° 0 mm 4 m/s 721 mmHg 14%
20:00 +38°C° 0 mm 4 m/s 721 mmHg 16%
21:00 +36°C° 0 mm 4 m/s 721 mmHg 18%
22:00 +35°C° 0 mm 4 m/s 721 mmHg 19%
23:00 +34°C° 0 mm 4 m/s 721 mmHg 20%

Poimâine, 14 August, Vineri

Timp Temperatura Precipitaţii Vânt Presiune Umiditate
00:00 +33°C° 0 mm 3 m/s 721 mmHg 21%
01:00 +31°C° 0 mm 3 m/s 720 mmHg 21%
02:00 +30°C° 0 mm 2 m/s 720 mmHg 21%
03:00 +29°C° 0 mm 2 m/s 720 mmHg 22%
04:00 +29°C° 0 mm 2 m/s 720 mmHg 23%
05:00 +29°C° 0 mm 2 m/s 720 mmHg 24%
06:00 +28°C° 0 mm 2 m/s 720 mmHg 25%
07:00 +31°C° 0 mm 1 m/s 720 mmHg 22%
08:00 +34°C° 0 mm 1 m/s 721 mmHg 18%
09:00 +37°C° 0 mm 1 m/s 721 mmHg 15%
10:00 +40°C° 0 mm 1 m/s 721 mmHg 14%
11:00 +42°C° 0 mm 1 m/s 720 mmHg 12%
12:00 +43°C° 0 mm 1 m/s 720 mmHg 10%
13:00 +45°C° 0 mm 2 m/s 720 mmHg 10%
14:00 +46°C° 0 mm 2 m/s 720 mmHg 9%
15:00 +47°C° 0 mm 3 m/s 719 mmHg 8%
16:00 +46°C° 0 mm 3 m/s 719 mmHg 8%
17:00 +47°C° 0 mm 4 m/s 719 mmHg 8%
18:00 +45°C° 0 mm 4 m/s 718 mmHg 8%
19:00 +43°C° 0 mm 5 m/s 719 mmHg 9%
20:00 +40°C° 0 mm 5 m/s 719 mmHg 9%
21:00 +38°C° 0 mm 6 m/s 719 mmHg 10%
22:00 +36°C° 0 mm 6 m/s 719 mmHg 11%
23:00 +35°C° 0 mm 5 m/s 719 mmHg 11%

15 August, Sâmbătă

Timp Temperatura Precipitaţii Vânt Presiune Umiditate
00:00 +34°C° 0 mm 5 m/s 719 mmHg 12%
01:00 +33°C° 0 mm 5 m/s 719 mmHg 13%
02:00 +32°C° 0 mm 4 m/s 718 mmHg 15%
03:00 +30°C° 0 mm 3 m/s 718 mmHg 17%
04:00 +29°C° 0 mm 3 m/s 718 mmHg 18%
05:00 +29°C° 0 mm 2 m/s 718 mmHg 19%
06:00 +28°C° 0 mm 2 m/s 719 mmHg 21%
07:00 +31°C° 0 mm 2 m/s 719 mmHg 19%
08:00 +35°C° 0 mm 2 m/s 719 mmHg 17%
09:00 +38°C° 0 mm 2 m/s 720 mmHg 14%
10:00 +40°C° 0 mm 2 m/s 720 mmHg 13%
11:00 +41°C° 0 mm 2 m/s 720 mmHg 12%
12:00 +43°C° 0 mm 2 m/s 720 mmHg 10%
13:00 +45°C° 0 mm 2 m/s 720 mmHg 9%
14:00 +46°C° 0 mm 3 m/s 719 mmHg 8%
15:00 +46°C° 0 mm 3 m/s 719 mmHg 7%
16:00 +47°C° 0 mm 4 m/s 719 mmHg 8%
17:00 +46°C° 0 mm 5 m/s 719 mmHg 8%
18:00 +45°C° 0 mm 6 m/s 719 mmHg 8%
19:00 +42°C° 0 mm 6 m/s 719 mmHg 10%
20:00 +40°C° 0 mm 6 m/s 719 mmHg 11%
21:00 +36°C° 0 mm 6 m/s 719 mmHg 13%
22:00 +35°C° 0 mm 5 m/s 719 mmHg 15%
23:00 +33°C° 0 mm 4 m/s 719 mmHg 17%

16 August, Duminică

Timp Temperatura Precipitaţii Vânt Presiune Umiditate
00:00 +31°C° 0 mm 3 m/s 719 mmHg 19%
01:00 +30°C° 0 mm 3 m/s 719 mmHg 20%
02:00 +29°C° 0 mm 2 m/s 719 mmHg 21%
03:00 +28°C° 0 mm 2 m/s 719 mmHg 23%
04:00 +28°C° 0 mm 2 m/s 719 mmHg 23%
05:00 +29°C° 0 mm 2 m/s 719 mmHg 24%
06:00 +29°C° 0 mm 3 m/s 720 mmHg 25%
07:00 +31°C° 0 mm 2 m/s 720 mmHg 23%
08:00 +35°C° 0 mm 2 m/s 721 mmHg 21%
09:00 +38°C° 0 mm 2 m/s 721 mmHg 18%
10:00 +39°C° 0 mm 2 m/s 721 mmHg 16%
11:00 +41°C° 0 mm 1 m/s 721 mmHg 14%
12:00 +43°C° 0 mm 1 m/s 721 mmHg 13%
13:00 +45°C° 0 mm 2 m/s 721 mmHg 11%
14:00 +46°C° 0 mm 2 m/s 721 mmHg 9%
15:00 +46°C° 0 mm 3 m/s 721 mmHg 8%
16:00 +46°C° 0 mm 3 m/s 721 mmHg 8%
17:00 +45°C° 0 mm 3 m/s 720 mmHg 8%
18:00 +44°C° 0 mm 4 m/s 720 mmHg 7%
19:00 +42°C° 0 mm 4 m/s 721 mmHg 7%
20:00 +39°C° 0 mm 5 m/s 721 mmHg 7%
21:00 +36°C° 0 mm 5 m/s 721 mmHg 7%
22:00 +35°C° 0 mm 5 m/s 721 mmHg 8%
23:00 +34°C° 0 mm 5 m/s 721 mmHg 9%

17 August, Luni

Timp Temperatura Precipitaţii Vânt Presiune Umiditate
00:00 +33°C° 0 mm 4 m/s 720 mmHg 10%
01:00 +32°C° 0 mm 4 m/s 720 mmHg 12%
02:00 +30°C° 0 mm 4 m/s 720 mmHg 13%
03:00 +29°C° 0 mm 4 m/s 720 mmHg 15%
04:00 +29°C° 0 mm 4 m/s 720 mmHg 17%
05:00 +28°C° 0 mm 4 m/s 720 mmHg 19%
06:00 +27°C° 0 mm 4 m/s 720 mmHg 22%
07:00 +30°C° 0 mm 3 m/s 721 mmHg 19%
08:00 +34°C° 0 mm 3 m/s 721 mmHg 17%
09:00 +36°C° 0 mm 3 m/s 722 mmHg 14%
10:00 +38°C° 0 mm 4 m/s 722 mmHg 12%
11:00 +41°C° 0 mm 4 m/s 722 mmHg 10%
12:00 +43°C° 0 mm 5 m/s 721 mmHg 8%
13:00 +45°C° 0 mm 5 m/s 721 mmHg 8%
14:00 +46°C° 0 mm 5 m/s 721 mmHg 7%
15:00 +46°C° 0 mm 5 m/s 721 mmHg 6%
16:00 +45°C° 0 mm 5 m/s 720 mmHg 6%
17:00 +44°C° 0 mm 4 m/s 720 mmHg 7%
18:00 +43°C° 0 mm 4 m/s 720 mmHg 7%
19:00 +40°C° 0 mm 4 m/s 720 mmHg 9%
20:00 +37°C° 0 mm 4 m/s 720 mmHg 10%
21:00 +35°C° 0 mm 4 m/s 721 mmHg 11%
22:00 +34°C° 0 mm 4 m/s 720 mmHg 12%
23:00 +31°C° 0 mm 3 m/s 720 mmHg 13%
Arată mai mult